Location: Munkebjergskolens Observatorium
(55.3864°N, 10.3987°E)
Time: 12:57:25
(UTC+02:00)

Oscar 19 - Pass Details

Date: 02 April 2023
Orbit: 773 x 789 km, 98.8° (Epoch: 07 June)

Event Time Altitude Azimuth Distance (km) Brightness Sun altitude
Rises 05:57:40 0° 16° (NNE) 3,274 14.4 -7.8°
Reaches altitude 10° 05:59:59 10° 15° (NNE) 2,344 13.6 -7.4°
Maximum altitude 06:05:10 81° 290° (WNW) 799 10.7 -6.8°
Drops below altitude 10° 06:10:20 10° 203° (SSW) 2,338 12.7 -6.1°
Sets 06:12:38 0° 203° (SSW) 3,265 13.5 -5.7°
